[Date Prev][Date Next][Thread Prev][Thread Next] - [Date Index][Thread Index][Author Index]
2 Line ISS Keps 4-17
- Subject: [sarex] 2 Line ISS Keps 4-17
- From: "Dave Larsen PhD" <doc@xxxxxxxxxxx>
- Date: Sat, 17 Apr 2004 03:03:28 -0700
ISS
1 25544U 98067A 04108.31795373 .00023620 00000-0 20969-3 0 5887
2 25544 51.6277 275.9860 0011038 41.8707 31.4336 15.68359523308768
----
Via the sarex mailing list at AMSAT.ORG courtesy of AMSAT-NA.
To unsubscribe, send "unsubscribe sarex" to Majordomo@amsat.org
AMSAT Home